Dewpoint
2 2 1 0 1 1 1 1 -0 0 1 2 2 1 1 0 0 -5 -11 -17 -17 -14 -5 -6 -1 0 1 -1 -3 -5 -4 -1 -2 -1 4 6 4 2 5 6 6 7 4 3 3 2 0
1 1 0 1 2 1 1 1 1 1 1 1 1 0 0 0 -0 -3 -8 -15 -15 -13 -4 -5 -2 0 -1 -2 -5 -5 -3 -3 -3 -1 4 6 4 1 0 4 6 3 3 2 2 1 1
1 0 1 0 1 0 1 1 1 1 0 0 1 0 0 -1 -10 -13 -14 -15 -13 -12 -13 -13 -1 -2 -3 -5 -5 -2 -2 -2 -2 -2 -2 1 6 1 -0 2 3 2 3 2 1 0 1
1 0 0 0 1 1 1 1 -1 -0 0 1 0 0 -1 -7 -10 -14 -17 -13 -15 -13 -15 -6 -3 -4 -4 -3 -6 -4 -2 0 -1 -3 -3 0 3 6 0 -1 -0 4 2 5 1 0 -0
1 1 0 -0 0 1 1 0 -1 -0 0 0 -0 -1 -8 -14 -14 -15 -16 -13 -16 -12 -11 -9 -7 -10 -6 -6 -6 -6 -2 -2 -1 -2 -2 -2 -1 3 5 -0 1 -0 5 3 2 -1 0
-0 0 -0 -0 -0 -0 -0 -1 -2 -0 -1 -1 -1 -9 -12 -15 -15 -16 -13 -10 -7 -8 -9 -12 -13 -11 -10 -9 -7 -7 -1 -0 -0 -3 -5 -2 1 4 7 2 5 2 0 0 1 0 -1
0 0 -0 -0 -1 -1 -3 -2 -2 -1 -2 -2 -4 -8 -12 -14 -15 -15 -5 -6 -5 -9 -5 -5 -7 -11 -11 -12 -11 -6 -5 -4 0 -2 -1 -4 3 4 6 4 -2 -1 -2 -2 -2 -2 -1
-1 -0 -0 0 -2 -6 -14 -8 -8 -8 -3 -7 -9 -10 -13 -13 -16 -9 -4 -4 -3 -2 -2 -5 -10 -15 -14 -12 -13 -13 -10 -4 -2 2 -3 -2 4 -0 -0 6 2 -2 -2 -2 -4 -5 -3
0 -0 -0 -1 -2 -10 -23 -16 -23 -21 -18 -16 -9 -11 -12 -13 -13 -7 -5 -5 -3 -2 -2 -7 -14 -15 -13 -14 -13 -12 -6 -5 -3 -3 -0 1 -4 -3 -1 5 6 3 -1 -3 -3 -5 -5
-1 -1 -1 -1 -7 -14 -16 -22 -20 -22 -21 -13 -10 -11 -12 -12 -10 -5 -9 -6 -3 -2 -2 -13 -13 -13 -13 -15 -13 -14 -8 -6 -2 0 -2 -0 -5 -3 0 3 5 7 0 -3 -4 -3 -0
-1 -1 -1 -5 -9 -14 -22 -22 -21 -22 -19 -13 -12 -11 -13 -11 -5 -9 -7 -8 -6 -2 -6 -14 -13 -13 -13 -15 -15 -14 -8 -9 -5 -4 -3 0 -2 -3 1 3 3 5 -0 -1 -2 -4 -4
-1 -1 -2 -2 -3 -11 -21 -23 -22 -25 -23 -16 -12 -12 -12 -10 -9 -11 -12 -13 -1 -7 -10 -12 -12 -11 -13 -16 -15 -15 -14 -9 -7 -7 -6 -4 -1 -4 -5 -4 -0 4 1 -2 -2 -3 1
-1 -1 -1 -1 -2 -3 -7 -16 -23 -26 -25 -15 -14 -13 -12 -7 -8 -13 -11 -6 -12 -7 -13 -10 -8 -10 -13 -14 -13 -14 -12 -5 -3 -3 -5 -5 -5 2 -1 -3 -2 5 5 6 6 6 5
-7 -4 -1 -3 -2 -1 -2 -9 -22 -29 -27 -17 -15 -12 -7 -8 -15 -11 -8 -13 -7 -9 -7 -8 -9 -10 -13 -13 -12 -12 -12 -9 -6 -6 -4 -2 -3 0 2 1 -1 0 5 5 5 4 1
-9 -7 -4 -1 -1 -1 -1 -4 -11 -26 -25 -18 -14 -11 -8 -10 -11 -10 -12 -7 -8 -6 -6 -5 -6 -11 -10 -10 -10 -10 -12 -8 -6 -3 -3 -3 -4 -8 -0 1 3 1 3 0 -4 -5 -2
-10 -8 -2 -1 -4 -1 -2 -2 -2 -11 -23 -21 -6 -5 -9 -9 -9 -11 -9 -8 -8 -9 -8 -8 -7 -7 -3 -7 -7 -7 -10 -8 -7 -7 -5 -4 -3 -7 -1 2 3 5 -2 -1 -2 1 -0
-16 -12 -6 -4 -2 -4 -2 -3 -1 -3 -22 -23 -5 -5 -11 -9 -8 -10 -6 -5 -8 -9 -10 -7 -5 -4 -4 -7 -7 -8 -7 -9 -7 -7 -7 -6 -2 -5 -3 1 3 5 3 -2 -5 -5 -1
-18 -14 -13 -11 -7 -4 -1 -1 -2 -2 -12 -5 -2 -7 -9 -7 -10 -9 -6 -7 -9 -9 -9 -9 -8 -7 -6 -5 -5 -6 -7 -5 -7 -4 -4 -8 -3 -2 -2 -5 -2 4 2 1 0 -2 -2
-19 -17 -13 -9 -4 -1 -1 -2 -3 -3 -9 -2 -2 -3 -7 -7 -4 -5 -7 -9 -9 -8 -8 -7 -7 -7 -4 -4 -3 -7 -4 -6 -6 -3 -4 -5 -2 -1 2 1 -1 0 -1 1 1 -3 -2
-14 -19 -12 -11 -7 -1 -2 -3 -2 -3 -7 -2 -2 -4 -12 -10 -8 -5 -4 -7 -7 -10 -8 -8 -7 -7 -5 -6 -9 -5 -6 -6 -5 -5 -6 -4 -3 -1 -2 -1 -2 -3 -2 -0 2 5 -1
-3 -10 -17 -9 -10 -2 -2 -2 -2 -3 -5 -3 -3 -6 -5 -6 -6 -5 -6 -7 -7 -6 -8 -9 -7 -8 -5 -3 -5 -7 -6 -5 -8 -6 -5 -4 -3 -4 -3 -3 -6 -5 -4 -4 -1 -3 3
0 -0 -7 -9 -5 -1 -2 -2 -2 -3 -4 -3 -4 -4 -4 -5 -8 -8 -8 -7 -6 -5 -7 -7 -7 -8 -7 -5 -6 -3 -5 -5 -7 -5 -5 -5 -3 -3 -0 -5 -7 -7 -7 -8 -8 -9 -5
0 1 1 -4 -3 -1 -2 -4 -5 -3 -4 -3 -3 -3 -2 -6 -10 -9 -8 -6 -5 -6 -8 -9 -8 -7 -7 -8 -7 -7 -8 -6 -4 -2 -5 -5 -2 -3 -2 -3 -1 -6 -7 -7 -9 -10 -8
0 0 0 0 -4 -2 -2 -4 -2 -3 -3 -3 -3 -3 -3 -5 -9 -9 -7 -7 -6 -7 -6 -8 -9 -8 -9 -8 -7 -9 -8 -6 -3 -4 -9 -6 -4 -3 -1 -1 -2 -7 -10 -8 -9 -10 -10
-0 0 0 0 -0 -2 -2 -3 -2 -2 -3 -4 -3 -3 -3 -4 -7 -8 -7 -6 -7 -8 -9 -8 -8 -9 -8 -6 -8 -8 -11 -10 -10 -11 -10 -7 -5 -2 -1 -4 -5 -6 -9 -10 -9 -8 -12
-1 0 0 0 -0 -2 -2 -3 -4 -2 -2 -3 -3 -4 -3 -3 -7 -7 -6 -5 -6 -7 -8 -10 -9 -8 -7 -7 -7 -5 -7 -8 -8 -8 -12 -13 -7 -3 -1 -3 -3 -9 -11 -10 -10 -7 -12
-1 -1 0 0 -0 -1 -2 -3 -4 -4 -3 -3 -4 -4 -3 -3 -5 -5 -5 -3 -5 -7 -6 -9 -8 -9 -10 -7 -6 -7 -7 -9 -7 -6 -7 -9 -9 -6 -4 -3 -7 -11 -12 -12 -6 -8 -13
-2 -1 0 0 0 -1 -1 -2 -4 -3 -3 -4 -3 -4 -4 -3 -3 -4 -5 -4 -4 -5 -5 -7 -7 -9 -8 -6 -5 -6 -6 -7 -5 -8 -8 -9 -8 -8 -8 -6 -5 -13 -14 -11 -13 -14 -14
-3 -1 0 0 -0 -1 -1 -1 -4 -4 -3 -4 -4 -4 -4 -3 -3 -4 -3 -3 -3 -4 -4 -5 -7 -8 -6 -5 -5 -5 -5 -6 -5 -6 -12 -7 -11 -9 -9 -8 -13 -12 -13 -14 -14 -14 -14
Wind_Speed
20 21 21 22 23 23 26 26 27 28 28 30 31 33 34 37 38 35 34 33 32 34 32 32 32 28 24 25 36 40 40 38 32 21 43 47 49 45 37 31 34 35 29 43 41 35 34
20 20 20 22 23 25 27 28 30 31 33 33 34 35 37 38 36 34 34 35 33 34 33 33 29 24 25 30 25 20 28 32 24 17 16 44 45 52 40 34 34 29 28 29 40 41 36
20 19 22 23 25 25 27 29 31 32 33 34 35 37 39 38 33 35 37 35 35 35 33 29 24 20 23 36 28 24 33 36 24 24 28 25 39 41 48 36 46 35 23 29 30 29 31
20 21 22 23 25 26 28 30 31 33 34 35 37 38 39 36 34 38 38 34 35 31 27 26 21 15 16 14 22 26 25 18 23 25 26 26 22 36 44 42 29 30 28 26 31 30 28
21 22 22 24 26 27 28 30 32 34 35 37 37 40 40 35 36 39 33 36 31 27 25 20 9 21 11 9 27 32 18 17 21 22 19 18 26 24 35 26 25 23 30 39 28 29 28
21 23 24 25 25 26 27 30 33 35 36 36 37 40 39 31 35 37 34 32 24 17 22 8 9 13 9 30 31 25 13 19 13 13 16 22 13 13 16 23 25 33 36 34 33 29 26
21 22 24 26 26 28 30 32 34 36 37 39 41 43 38 30 37 31 29 23 32 12 25 11 20 15 23 30 28 16 16 24 16 15 15 21 12 20 21 30 31 31 31 33 29 26 29
22 23 25 27 28 30 31 33 36 38 40 42 43 42 27 31 33 24 21 15 17 14 15 13 15 17 23 29 27 21 27 11 8 13 16 17 22 25 25 20 26 33 33 34 25 24 25
23 24 24 27 29 31 32 34 36 39 42 43 45 40 26 35 22 22 17 16 20 8 6 8 16 14 29 31 14 23 22 20 16 19 16 20 23 25 28 23 27 33 33 26 29 23 21
24 24 26 28 30 32 33 35 38 40 43 44 45 32 26 36 18 24 22 27 18 5 4 14 19 12 33 31 11 25 20 14 7 8 14 15 25 23 24 28 27 27 30 25 20 17 19
24 27 28 31 31 32 33 36 40 42 44 45 44 23 32 29 22 26 30 27 6 4 5 15 15 19 27 23 21 27 14 19 8 17 6 8 20 29 24 23 23 19 19 23 24 20 14
26 26 28 30 31 33 35 37 38 41 43 46 43 17 31 27 22 29 28 14 1 3 6 12 22 23 23 19 24 27 17 20 4 14 10 16 15 19 31 20 23 9 22 19 17 15 14
27 28 28 29 32 32 35 37 39 41 43 45 37 15 26 23 28 28 18 7 3 10 17 15 25 24 21 22 24 24 18 18 15 12 17 17 17 7 6 27 21 17 18 8 9 7 10
28 29 29 30 31 32 33 37 41 43 43 44 31 17 23 24 23 16 17 3 8 15 17 23 19 23 15 22 22 22 17 13 15 17 13 8 5 11 5 11 23 25 11 6 8 9 18
30 30 30 29 30 31 32 36 41 42 42 43 28 10 24 30 23 18 13 8 6 12 13 14 22 18 19 24 19 22 16 11 10 12 11 6 5 14 8 4 7 26 18 16 15 20 8
29 30 30 30 31 33 33 35 37 40 42 40 24 10 21 23 20 14 7 7 8 15 17 16 18 12 23 22 22 20 13 7 9 14 11 4 10 6 5 1 9 8 28 23 17 15 15
30 30 30 30 31 33 33 36 36 37 40 38 18 8 22 17 11 13 6 7 9 19 21 11 17 18 17 24 24 18 15 11 19 17 15 10 5 8 7 8 5 7 15 20 20 14 16
29 30 30 31 32 34 34 34 35 37 38 30 13 5 20 25 11 11 7 10 16 14 22 10 11 15 16 25 12 11 16 11 22 17 10 5 5 8 8 11 9 4 8 25 12 22 15
31 29 30 30 31 33 33 33 33 35 33 25 15 6 12 17 8 12 12 6 14 18 16 9 8 13 14 14 7 12 15 17 20 14 7 7 5 7 3 7 10 8 10 8 19 15 18
31 32 29 30 30 30 32 32 31 33 31 18 10 5 8 9 11 14 13 9 16 16 10 17 12 13 21 16 16 7 18 9 13 11 15 7 3 4 5 5 5 6 16 11 4 8 13
33 33 32 29 29 30 31 31 31 31 30 15 10 6 4 8 12 11 11 8 17 16 9 16 6 20 19 8 13 13 19 15 10 13 6 7 4 10 9 12 19 19 14 16 11 10 1
33 34 34 32 30 29 31 29 30 29 30 12 11 8 9 19 16 11 10 10 15 20 14 10 13 24 17 10 14 19 20 12 8 12 8 6 4 9 14 18 21 17 22 12 15 14 8
34 36 36 35 30 29 30 29 27 25 24 10 15 14 8 12 11 10 10 15 17 17 9 12 20 18 20 18 29 25 20 14 11 12 16 11 7 4 5 9 8 9 18 12 11 16 11
37 37 39 36 34 28 29 28 26 22 20 19 20 16 8 9 11 11 15 17 16 15 14 18 19 14 20 35 25 10 11 11 9 7 11 12 12 1 2 9 3 6 13 7 8 11 14
35 34 36 37 38 29 29 28 26 23 20 19 19 17 7 8 18 15 17 14 18 16 12 15 16 23 24 19 6 6 6 4 6 12 13 7 6 4 3 8 9 3 9 9 6 5 15
33 33 33 36 37 32 29 30 27 24 20 20 20 15 12 9 3 23 16 13 10 10 9 6 18 16 15 7 3 4 5 7 6 13 14 11 9 5 3 4 4 4 16 16 7 5 18
32 36 33 38 36 34 29 31 29 26 22 22 23 15 14 15 21 7 12 9 7 10 8 14 21 10 10 7 4 4 4 5 6 9 8 7 5 10 8 3 4 12 18 13 3 8 25
32 36 36 38 38 36 32 32 31 27 24 22 26 21 13 15 25 19 11 11 12 12 5 15 11 7 6 6 3 4 3 4 3 3 3 5 6 5 5 4 2 24 6 6 9 19 24
30 36 38 36 38 36 34 31 32 30 27 27 27 20 16 18 14 22 22 20 16 14 10 5 7 9 5 4 4 4 6 2 3 3 2 1 3 3 4 3 3 5 10 8 12 20 23
Wind_Direction
23 23 19 15 15 8 9 2 359 356 354 350 348 345 344 341 338 334 332 329 325 321 315 315 309 307 303 278 265 277 281 286 289 283 233 219 216 217 219 221 213 218 218 221 233 234 234
22 21 17 15 10 11 6 2 1 357 354 351 347 345 343 341 337 335 331 327 324 320 314 311 307 308 295 277 290 296 286 290 277 264 272 225 220 220 225 222 220 217 224 235 222 234 238
22 14 19 13 10 8 4 1 359 358 354 350 345 344 342 341 341 336 331 326 325 324 319 315 310 305 291 278 294 300 284 272 264 268 283 262 233 226 223 222 223 225 226 220 240 226 232
17 17 13 11 9 5 4 1 358 357 353 349 346 343 341 340 340 336 331 328 329 324 332 326 311 303 280 287 305 327 329 288 269 275 263 260 250 240 229 230 229 231 227 236 214 230 231
18 12 12 9 7 3 2 359 357 356 353 349 346 342 341 339 342 338 336 333 332 333 348 331 331 319 298 309 323 326 303 306 281 283 269 247 244 238 226 220 222 217 225 227 223 211 221
14 11 8 7 4 1 359 357 357 356 354 351 346 343 339 338 340 338 337 348 337 338 339 360 352 344 326 328 329 326 300 307 277 273 261 220 220 234 206 200 207 212 220 225 219 215 214
15 6 6 3 2 360 359 358 356 354 350 351 350 348 340 343 342 339 347 354 1 349 340 316 311 320 328 330 331 348 329 320 274 248 245 222 217 231 221 210 207 214 227 224 226 211 224
11 4 5 359 359 359 358 356 354 352 350 352 353 347 346 343 345 352 349 11 359 303 307 326 319 338 341 338 330 346 344 332 331 269 219 227 215 222 226 214 220 224 221 232 224 224 215
10 3 1 359 358 358 356 354 353 353 349 352 353 348 349 345 352 346 353 345 329 295 261 303 356 346 343 341 7 352 348 332 290 275 260 225 224 220 228 213 209 224 225 227 228 210 223
10 5 2 0 358 356 354 355 354 355 353 354 353 350 352 345 353 349 342 331 327 212 266 11 356 353 343 353 5 350 352 327 307 291 244 225 236 218 215 232 213 212 223 233 246 194 212
13 8 6 3 358 357 358 357 357 357 356 354 353 351 353 351 340 341 331 335 349 156 2 349 338 333 336 4 341 359 1 338 307 304 267 230 201 222 227 218 225 218 221 211 242 240 207
11 9 7 3 360 0 360 359 360 357 355 353 355 358 2 353 347 342 347 344 80 285 356 320 344 339 336 356 354 351 7 11 318 317 325 261 274 219 224 226 204 233 217 194 223 239 224
9 7 4 1 356 357 357 358 358 356 356 353 357 5 359 0 341 345 355 316 323 18 344 344 331 328 324 355 352 351 355 37 27 346 347 315 257 288 241 214 203 201 197 164 188 214 225
10 9 5 3 358 356 355 357 358 357 358 353 357 10 1 353 350 2 358 34 36 352 350 325 330 317 346 351 349 345 359 16 36 2 327 334 217 182 221 232 201 201 202 174 132 179 216
10 10 6 1 357 354 355 353 353 359 360 355 360 5 358 3 12 13 14 36 10 348 336 318 314 335 337 345 347 342 5 20 32 27 3 313 287 342 220 243 217 205 204 217 200 214 234
9 8 3 1 358 355 353 352 352 357 0 359 354 335 355 2 18 10 34 30 351 350 332 332 332 327 331 342 347 341 354 344 10 3 355 314 298 345 325 190 257 248 200 203 225 222 209
4 3 1 358 355 353 352 352 352 353 359 360 358 341 354 12 11 24 23 351 331 334 347 324 318 323 338 340 335 339 349 339 2 335 328 303 254 307 300 201 242 182 202 213 222 225 223
358 358 357 358 355 353 353 352 352 352 357 359 353 334 355 9 21 23 11 334 327 333 341 332 312 333 339 329 322 347 350 350 343 327 324 337 301 297 301 311 326 284 210 209 208 203 228
357 354 353 353 353 352 351 353 354 353 1 349 338 299 334 10 16 358 359 349 344 336 340 335 316 340 335 334 330 340 341 335 342 5 349 347 353 321 12 131 25 22 357 321 227 222 212
357 354 349 350 351 349 350 353 355 352 360 357 343 335 354 349 1 1 335 342 345 359 338 340 310 328 342 336 342 307 342 345 342 352 350 334 306 316 330 350 9 2 13 1 297 232 229
357 355 350 345 349 350 350 352 357 352 360 9 1 360 359 320 342 342 331 320 340 352 347 335 316 337 341 314 331 343 333 330 344 3 22 3 298 343 293 104 66 45 34 26 45 13 331
356 355 352 348 347 349 350 352 353 354 1 358 354 339 319 303 319 325 329 343 331 335 329 321 324 331 329 320 342 318 319 329 360 330 21 356 327 336 89 107 92 61 28 31 33 9 12
352 353 351 350 344 346 347 351 351 358 359 350 334 328 292 303 318 320 345 336 322 326 319 321 328 325 321 338 321 304 288 285 279 308 345 348 336 329 152 188 291 16 4 62 70 35 353
352 352 353 347 344 343 344 348 348 351 353 340 329 316 295 298 316 321 322 333 328 317 305 310 327 330 315 319 316 271 258 251 267 293 17 337 342 260 282 214 62 124 29 37 71 57 24
351 350 348 347 341 340 338 344 342 341 339 337 333 323 286 290 307 303 335 322 319 320 315 304 316 324 326 316 325 329 360 7 318 15 13 20 331 314 332 64 122 172 18 329 325 67 22
343 346 346 347 341 338 337 337 338 335 332 326 323 319 284 297 250 329 316 310 322 330 323 352 335 333 333 304 328 331 7 328 330 337 6 354 340 21 339 54 52 41 328 326 201 226 11
329 341 344 350 342 339 332 333 333 335 330 323 317 320 293 274 283 293 309 309 308 314 299 313 341 335 347 335 329 357 337 344 331 347 343 345 347 26 8 53 102 357 333 319 246 340 340
323 330 337 345 343 336 330 331 331 331 327 325 305 316 283 265 282 291 277 269 293 290 286 325 326 8 319 343 323 357 302 10 288 66 11 348 334 12 332 354 46 0 27 37 321 319 325
321 326 333 336 342 336 328 328 330 328 324 322 306 307 293 267 263 285 285 277 264 258 275 295 303 319 318 301 350 316 294 247 12 336 62 246 18 327 6 22 352 17 79 13 342 328 328
Height
1537 1534 1531 1526 1522 1517 1513 1509 1503 1498 1494 1488 1482 1476 1469 1463 1456 1450 1443 1438 1433 1428 1423 1418 1415 1412 1410 1405 1397 1393 1384 1387 1387 1387 1384 1387 1388 1386 1382 1388 1395 1388 1390 1401 1404 1405 1405
1538 1534 1530 1527 1522 1517 1513 1508 1504 1499 1492 1486 1479 1472 1466 1459 1452 1446 1439 1433 1428 1422 1417 1412 1408 1406 1404 1394 1392 1390 1384 1380 1380 1380 1375 1376 1377 1378 1379 1381 1380 1379 1389 1390 1396 1396 1400
1538 1535 1531 1527 1523 1519 1515 1510 1504 1497 1492 1484 1477 1471 1463 1455 1449 1442 1436 1428 1423 1416 1410 1405 1402 1400 1398 1389 1389 1385 1378 1373 1375 1374 1372 1370 1373 1375 1373 1365 1371 1378 1380 1386 1386 1385 1390
1539 1535 1531 1527 1523 1519 1514 1509 1502 1495 1489 1483 1476 1468 1459 1452 1446 1439 1432 1425 1418 1411 1405 1398 1396 1395 1389 1386 1384 1377 1369 1364 1365 1366 1366 1367 1366 1366 1364 1370 1372 1373 1375 1379 1368 1383 1382
1540 1536 1532 1527 1523 1518 1513 1506 1499 1493 1487 1481 1474 1465 1457 1449 1442 1434 1427 1420 1414 1407 1401 1396 1395 1392 1384 1384 1380 1375 1365 1361 1361 1359 1359 1360 1364 1363 1366 1359 1367 1359 1359 1352 1371 1369 1378
1541 1537 1532 1527 1522 1516 1510 1503 1498 1493 1486 1478 1469 1459 1450 1443 1438 1431 1423 1416 1410 1404 1402 1396 1394 1386 1383 1382 1377 1371 1365 1359 1357 1355 1354 1353 1353 1351 1341 1338 1344 1350 1341 1344 1356 1360 1366
1541 1537 1532 1527 1521 1515 1509 1504 1498 1491 1483 1476 1469 1461 1452 1445 1438 1426 1420 1417 1412 1406 1403 1405 1399 1392 1385 1380 1376 1368 1362 1356 1351 1350 1346 1341 1342 1332 1335 1338 1330 1338 1342 1339 1344 1350 1360
1541 1537 1532 1527 1520 1515 1509 1503 1496 1489 1482 1473 1465 1455 1446 1441 1433 1428 1424 1421 1423 1421 1406 1399 1395 1390 1386 1378 1368 1365 1362 1357 1355 1343 1340 1340 1328 1333 1333 1339 1335 1335 1334 1335 1342 1344 1351
1542 1537 1531 1526 1521 1514 1508 1502 1495 1488 1480 1472 1463 1454 1448 1440 1432 1428 1424 1423 1419 1417 1415 1398 1394 1388 1384 1376 1369 1364 1362 1357 1348 1342 1340 1331 1322 1331 1330 1332 1339 1333 1330 1335 1336 1341 1346
1541 1536 1531 1526 1520 1513 1507 1501 1494 1487 1478 1470 1461 1451 1443 1436 1432 1426 1424 1419 1413 1411 1402 1393 1391 1389 1383 1375 1369 1366 1363 1359 1351 1337 1328 1329 1323 1319 1324 1325 1331 1333 1334 1341 1337 1340 1351
1542 1537 1531 1525 1519 1512 1506 1500 1493 1485 1477 1467 1458 1450 1445 1435 1431 1427 1422 1414 1411 1412 1396 1398 1393 1391 1386 1379 1372 1365 1361 1354 1350 1342 1344 1319 1315 1316 1321 1328 1332 1331 1333 1341 1344 1338 1348
1542 1537 1532 1526 1520 1513 1506 1499 1492 1484 1475 1466 1457 1449 1444 1438 1433 1428 1419 1413 1413 1404 1410 1399 1396 1389 1380 1373 1370 1364 1359 1356 1347 1337 1326 1319 1321 1312 1310 1318 1330 1340 1334 1337 1344 1343 1352
1542 1537 1532 1528 1522 1514 1506 1499 1492 1483 1474 1464 1455 1450 1443 1439 1432 1423 1418 1415 1408 1415 1408 1403 1399 1390 1379 1372 1368 1362 1355 1359 1361 1350 1337 1323 1307 1320 1310 1313 1320 1337 1330 1342 1356 1358 1348
1542 1537 1532 1527 1522 1516 1509 1501 1491 1482 1473 1463 1455 1451 1448 1442 1433 1426 1419 1413 1420 1419 1417 1410 1402 1388 1381 1375 1373 1364 1357 1360 1366 1363 1350 1343 1309 1319 1317 1308 1308 1314 1327 1314 1332 1338 1322
1543 1538 1533 1528 1522 1516 1508 1501 1492 1483 1473 1463 1453 1449 1447 1440 1435 1430 1425 1425 1428 1428 1427 1418 1402 1388 1384 1381 1379 1369 1361 1366 1369 1371 1370 1355 1324 1323 1319 1316 1317 1309 1314 1313 1304 1307 1313
1545 1539 1535 1529 1522 1516 1509 1501 1493 1483 1474 1463 1454 1451 1448 1440 1437 1435 1432 1432 1432 1431 1426 1418 1405 1399 1396 1385 1382 1374 1364 1367 1369 1370 1371 1362 1350 1319 1322 1321 1323 1317 1302 1314 1306 1316 1323
1545 1539 1534 1528 1522 1515 1508 1502 1494 1484 1475 1465 1457 1454 1450 1443 1439 1437 1439 1440 1434 1434 1428 1423 1415 1408 1402 1392 1386 1377 1374 1369 1371 1369 1369 1362 1357 1327 1319 1312 1315 1314 1307 1304 1301 1305 1311
1545 1539 1534 1527 1521 1514 1508 1501 1493 1485 1476 1468 1462 1456 1454 1446 1443 1440 1441 1445 1439 1433 1429 1423 1417 1411 1406 1399 1388 1383 1379 1380 1376 1372 1366 1361 1361 1342 1320 1316 1320 1316 1304 1304 1298 1305 1300
1544 1538 1532 1526 1520 1514 1507 1500 1493 1485 1477 1468 1464 1460 1454 1450 1452 1446 1445 1441 1439 1432 1429 1426 1422 1416 1413 1404 1397 1386 1386 1381 1378 1372 1369 1365 1356 1344 1316 1320 1330 1332 1340 1329 1306 1296 1297
1544 1537 1531 1525 1518 1512 1506 1500 1494 1489 1482 1476 1471 1461 1456 1453 1454 1457 1451 1443 1437 1434 1431 1430 1424 1418 1413 1403 1394 1392 1385 1381 1379 1375 1370 1370 1363 1358 1355 1354 1356 1354 1348 1335 1326 1313 1304
1543 1536 1529 1523 1517 1513 1508 1502 1496 1490 1485 1483 1478 1473 1471 1458 1456 1459 1453 1450 1439 1435 1434 1429 1424 1419 1415 1408 1395 1390 1386 1382 1374 1374 1375 1372 1365 1357 1356 1364 1367 1367 1366 1361 1350 1358 1331
1542 1536 1530 1525 1520 1516 1511 1505 1500 1495 1489 1489 1486 1482 1474 1467 1458 1451 1448 1448 1443 1438 1436 1428 1426 1418 1414 1409 1407 1401 1393 1385 1379 1375 1375 1376 1367 1363 1353 1365 1368 1377 1377 1370 1374 1376 1362
1542 1537 1532 1526 1521 1515 1510 1504 1498 1493 1487 1483 1483 1481 1476 1464 1456 1450 1446 1448 1448 1443 1432 1430 1426 1420 1412 1406 1403 1398 1394 1390 1390 1384 1375 1374 1370 1365 1361 1364 1353 1362 1395 1396 1402 1404 1395
1541 1536 1531 1525 1518 1512 1507 1501 1497 1492 1490 1489 1486 1481 1475 1463 1457 1450 1447 1447 1446 1442 1436 1429 1426 1421 1414 1405 1397 1390 1388 1386 1387 1384 1381 1377 1372 1365 1356 1359 1366 1412 1408 1404 1408 1411 1414
1541 1534 1529 1522 1516 1511 1505 1500 1495 1492 1489 1486 1483 1481 1474 1466 1458 1454 1451 1448 1443 1437 1433 1429 1426 1422 1415 1407 1395 1389 1379 1381 1381 1379 1380 1380 1378 1367 1355 1369 1397 1402 1412 1418 1414 1411 1418
1537 1531 1526 1520 1514 1508 1503 1498 1491 1486 1481 1477 1475 1474 1471 1466 1451 1453 1448 1447 1442 1437 1429 1426 1424 1419 1415 1405 1398 1398 1393 1396 1386 1383 1383 1381 1379 1371 1362 1360 1373 1417 1417 1412 1411 1398 1415
1533 1528 1522 1516 1511 1505 1498 1493 1488 1484 1480 1477 1472 1471 1468 1462 1452 1450 1450 1447 1445 1441 1436 1427 1424 1419 1417 1410 1402 1400 1396 1398 1394 1397 1404 1394 1396 1386 1380 1373 1403 1420 1411 1407 1396 1410 1415
1528 1523 1517 1511 1506 1501 1496 1490 1485 1481 1477 1472 1466 1466 1462 1456 1446 1447 1445 1445 1443 1442 1439 1432 1425 1421 1420 1414 1409 1404 1401 1400 1404 1417 1421 1415 1411 1400 1395 1388 1393 1421 1412 1415 1429 1423 1419
1523 1519 1513 1508 1502 1496 1491 1485 1480 1475 1471 1466 1460 1458 1456 1452 1446 1442 1440 1440 1439 1440 1440 1436 1434 1430 1428 1423 1418 1415 1407 1403 1407 1397 1421 1414 1430 1423 1424 1420 1427 1428 1427 1429 1428 1424 1418